STARLINK-1089 (44967 NORAD) Tracking and Keplerian Element Data

This shows tracking and keplerian element data for the satellite.

Feedback or suggestion? Click here.




ElementValue
Catalog44967
NameSTARLINK-1089
Epoch Orbit728
Epoch Day53.25001157
Epoch Year2020
RAAN167.2189
Inclination52.9957
Eccentricity0.0001605
Argument of Perigee11.3231
Mean Anonmoly106.8777
Mean Motion15.73161106
Decay Rate0.00270888
L11 44967U 20001BF 20053.25001157 .00270888 00000-0 18756-2 0 9996
L22 44967 52.9957 167.2189 0001605 11.3231 106.8777 15.73161106 7280

Live tracking and technical data element details for STARLINK-1089 (NORAD 44967). STARLINK-1089 can be tracked NOW for your location showing map with azimuth and elevation plus other details from your city location.

Track the satellite on the map from your city or location and see movement details for azimuth, elevation, latitude, longitude, range, height, and movement on the map or in text.







IsCatalogInMostPopularTable: catalog: 44967, numindb: 16
Update: records affected: 1



GetName: 44967 STARLINK-1089

Hit Count: updated at: Wed, 26 Feb 2020 15:51:04 GMT